Kamloops,

12:55 AM PDT on April 22, 2018 (GMT -0700)
Kamloops

Weather History for CYKA - July, 2013

Change the Weather History Date:

Saturday, July 20, 2013

  Actual Average Record
Temperature  
Mean Temperature 78 °F -  
Max Temperature 95 °F 82 °F 95 °F (2013)
Min Temperature 61 °F 55 °F 51 °F (1996)
Cooling Degree Days 13    
Growing Degree Days 28 (Base 50)    
Moisture  
Dew Point 51 °F    
Average Humidity 39    
Maximum Humidity 68    
Minimum Humidity 13    
Precipitation  
Precipitation 0.00 in 0.04 in - ()
Sea Level Pressure  
Sea Level Pressure 29.82 in    
Wind  
Wind Speed 4 mph ()    
Max Wind Speed 8 mph    
Max Gust Speed 20 mph    
Averages and records for this station are not official NWS values.
T = Trace of Precipitation, MM = Missing Value Source: Averaged Metar Reports

Daily Weather History Graph

Daily Weather History Graph

Search for Another Location

Airport or City:

Astronomy

Jul. 20, 2013 Rise Set
Actual Time 5:12 AM PDT 9:02 PM PDT
Civil Twilight 4:30 AM PDT 9:44 PM PDT
Nautical Twilight 3:32 AM PDT 10:42 PM PDT
Astronomical Twilight 1:53 AM PDT 12:17 AM PDT
Moon 7:09 PM PDT (7/20) 2:58 AM PDT (7/20)
Length of Visible Light 17h 14m
Length of Day
15h 50m
Waxing Gibbous, 94% of the Moon is Illuminated
Jul 20
Waxing Gibbous
Jul 22
Full
Jul 29
Last Quarter
Aug 6
New
Aug 14
First Quarter

Hourly Weather History & Observations

Time (PDT) Temp. Heat Index Dew Point Humidity Pressure Visibility Wind Dir Wind Speed Gust Speed Precip Events Conditions
12:00 AM 75.2 °F - 55.4 °F 50% 29.89 in 40.0 mi SSE 3.5 mph - N/A   Clear
1:00 AM 71.6 °F - 55.4 °F 57% 29.90 in 40.0 mi Variable 2.3 mph - N/A   Clear
2:00 AM 68.0 °F - 51.8 °F 56% 29.91 in 40.0 mi North 2.3 mph - N/A   Clear
3:00 AM 68.0 °F - 51.8 °F 56% 29.91 in 40.0 mi Calm Calm - N/A   Clear
4:00 AM 66.2 °F - 51.8 °F 60% 29.92 in 40.0 mi NW 2.3 mph - N/A   Clear
5:00 AM 62 °F - 51 °F 58% 29.94 in 37 mi West 5.8 mph - -  
5:00 AM 62.6 °F - 51.8 °F 68% 29.94 in 40.0 mi West 6.9 mph - N/A   Clear
6:00 AM 62.6 °F - 51.8 °F 68% 29.94 in 40.0 mi Variable 2.3 mph - N/A   Clear
7:00 AM 66.2 °F - 50.0 °F 56% 29.94 in 40.0 mi SW 3.5 mph - N/A   Clear
8:00 AM 69.8 °F - 51.8 °F 53% 29.94 in 40.0 mi Calm Calm - N/A   Clear
9:00 AM 73.4 °F - 51.8 °F 47% 29.92 in 40.0 mi SE 4.6 mph - N/A   Clear
10:00 AM 77.0 °F - 53.6 °F 44% 29.90 in 40.0 mi SSW 4.6 mph - N/A   Clear
11:00 AM 81 °F - 52 °F 26% 29.87 in 37 mi South 4.6 mph - -   Scattered Clouds
11:00 AM 80.6 °F - 51.8 °F 37% 29.87 in 40.0 mi South 4.6 mph - N/A   Clear
12:00 PM 84.2 °F - 50.0 °F 30% 29.84 in 40.0 mi South 4.6 mph - N/A   Partly Cloudy
1:00 PM 87.8 °F - 48.2 °F 25% 29.81 in 40.0 mi South 3.5 mph - N/A   Partly Cloudy
2:00 PM 91.4 °F - 48.2 °F 23% 29.79 in 40.0 mi SSE 4.6 mph - N/A   Partly Cloudy
3:00 PM 91.4 °F - 50.0 °F 24% 29.76 in 40.0 mi West 5.8 mph - N/A   Partly Cloudy
4:00 PM 93.2 °F - 50.0 °F 23% 29.73 in 40.0 mi West 8.1 mph - N/A   Partly Cloudy
5:00 PM 94 °F - 49 °F 13% 29.71 in 37 mi SW 4.6 mph - -   Scattered Clouds
5:00 PM 95.0 °F - 50.0 °F 22% 29.71 in 40.0 mi WSW 4.6 mph - N/A   Partly Cloudy
6:00 PM 95.0 °F - 46.4 °F 19% 29.69 in 40.0 mi South 3.5 mph - N/A   Clear
7:00 PM 95.0 °F - 46.4 °F 19% 29.67 in 40.0 mi ESE 6.9 mph - N/A   Clear
8:00 PM 91.4 °F - 51.8 °F 26% 29.67 in 40.0 mi SSE 8.1 mph - N/A   Clear
9:00 PM 87.8 °F - 51.8 °F 29% 29.68 in 40.0 mi SSW 8.1 mph 19.6 mph N/A   Clear
10:00 PM 82.4 °F 81.4 °F 53.6 °F 37% 29.72 in 40.0 mi SE 4.6 mph - N/A   Clear
11:00 PM 79 °F - 53 °F 30% 29.73 in 37 mi East 8.1 mph - -  
11:00 PM 78.8 °F - 53.6 °F 42% 29.73 in 40.0 mi ESE 6.9 mph - N/A   Clear